Flag for Canada Weather past 2 weeks in Cambridge, Ontario, Canada

Now
54 °F

Clear.


Feels Like: 54 °F
Forecast: 51 / 71 °F
Wind: No wind

Location: Waterloo Well

Current Time: Jul 31, 2014 at 12:43:03 AM

Latest Report: Jul 31, 2014 at 12:00 AM


Visibility: 9 mi

Pressure: 30.00 "Hg

Humidity: 94%

Dew point: 52 °F

Location of CambridgeLocation

Historic Weather in Cambridge — Graph

°F

Cambridge temperature yesterday

Maximum temperature yesterday: 72 °F (at 3:49 PM)
Minimum temperature yesterday: 50 °F (at 5:47 AM)
Average temperature yesterday: 60 °F

Past Weeks' High & Low Weather Summary

 TemperatureHumidityPressure
High82 °F (Jul 21, 4:00 PM)100% (Jul 17, 2:58 AM)30.26 "Hg (Jul 17, 2:58 AM)
Low45 °F (Jul 17, 4:00 AM)34% (Jul 17, 3:00 PM)29.59 "Hg (Jul 28, 12:57 AM)
Average63 °F78%29.98 "Hg
* Reported Jul 15 11:00 PM — Jul 30 11:00 PM, Cambridge, Weather by CustomWeather, © 2014

Note: Actual official high and low records may vary slightly from our data, if they occured in-between our weather recording intervals... More about our weather records

Advertising

Cambridge weather history for previous 24 hours

 ConditionsComfort  
Time TempWeatherWind HumidityBarometerVisibility
11:00 PM
Jul 30
55 °FClear.No wind88%30.00 "Hg9 mi
10:00 PM57 °FPassing clouds.2 mph82%30.00 "Hg9 mi
9:00 PM61 °FPassing clouds.3 mph72%29.98 "Hg9 mi
8:00 PM63 °FSunny.6 mph64%29.98 "Hg9 mi
7:00 PM66 °FSunny.10 mph56%29.97 "Hg9 mi
6:00 PM70 °FSunny.10 mph50%29.96 "Hg9 mi
5:00 PM70 °FScattered clouds.12 mph53%29.95 "Hg9 mi
4:00 PM70 °FBroken clouds.14 mph57%29.95 "Hg9 mi
3:49 PM72 °FPartly sunny.15 mph61%29.95 "Hg9 mi
3:00 PM68 °FPassing clouds.3 mph73%29.96 "Hg9 mi
2:00 PM66 °FLight rain. Partly sunny.8 mph68%29.96 "Hg9 mi
1:58 PM66 °FLight rain. Partly sunny.8 mph68%29.96 "Hg9 mi
1:00 PM63 °FLight rain. Mostly cloudy.3 mph83%29.97 "Hg9 mi
12:00 PM66 °FScattered clouds.7 mph73%29.97 "Hg9 mi
11:00 AM63 °FBroken clouds.3 mph83%29.98 "Hg9 mi
10:56 AM63 °FBroken clouds.No wind83%29.98 "Hg9 mi
10:01 AM63 °FPartly sunny.3 mph83%29.98 "Hg9 mi
9:48 AM63 °FBroken clouds.3 mph83%29.98 "Hg9 mi
9:03 AM59 °FMostly cloudy.2 mph94%29.98 "Hg9 mi
8:02 AM55 °FFog.2 mph100%29.97 "Hg6 mi
8:00 AM55 °FFog.2 mph100%29.97 "Hg5 mi
7:00 AM50 °FFog.No wind100%29.96 "Hg4 mi
6:56 AM50 °FFog.No wind100%29.96 "Hg3 mi
6:03 AM52 °FFog.No wind94%29.94 "Hg0 mi
6:00 AM50 °FFog.No wind100%29.95 "Hg0 mi
5:47 AM50 °FFog.2 mph94%29.94 "Hg1 mi
5:00 AM54 °FPassing clouds.2 mph94%29.94 "Hg9 mi
4:02 AM54 °FFog.2 mph94%29.93 "Hg5 mi
3:00 AM55 °FMostly cloudy.5 mph94%29.94 "Hg9 mi
2:00 AM57 °FOvercast.3 mph88%29.94 "Hg9 mi
1:00 AM55 °FPassing clouds.2 mph94%29.95 "Hg9 mi
12:00 AM57 °FClear.5 mph94%29.95 "Hg9 mi
Weather by CustomWeather, © 2014

See weather overviewHow to use our weather pages